STARLINK-33548, 62280

Orbit data source: Space-Track

STARLINK-33548, 62280 is a payload satellite owned by SpaceX/Seattle (US) in LEO that was launched on Sun, 08 Dec 2024 UTC via an FALCON 9 launch vehicle from the Air Force Eastern Test Range (AFETR). Payload-class satellites include a variety of spacecraft equipped with specific instruments for various scientific and technological missions. These include communications satellites like Starlink; space stations such as the ISS; scientific satellites like the Hubble; Earth observation satellites from companies like Planet Labs, Umbra, and HawkEye 360; GPS; miniature CubeSats for education and research; and military/defense satellites.

Loading next visibility...
Identifier
62280, 2024-237P
Orbit
LEO
Country
Flag of USUS
Related business
Manufacturer
SpaceX/Seattle
Mission
Operational Commercial Communications
Bus & Motor
STARLINK V2MO, Unknown motor
Mass
530 kg wet, ~500 kg dry
Launch date (UTC)
2024-12-08 (2 years ago)
Launch vehicle
FALCON 9
Launch site
Air Force Eastern Test Range (AFETR)
Object type
Payload
Rocket body
Debris
Shape & HBR
Box + 2 Pan, 17.7 m
Radar Cross Section
36.964 m², Large (>1 m²)

Expand to show TLE details & history
Last TLE update: 1 day ago

TLE from 1 day ago
0 STARLINK-33548
1 62280U 24237P   26170.86382612  .00013636  00000-0  50396-3 0  9993
2 62280  43.0023 348.4779 0000929 281.9824  78.0924 15.27590675 86942
Epoch: 2026-06-19T20:43Z
TLE epoch observation values (Epoch: 2026-06-19T20:43:54.576Z)
Latitude
Longitude
129.41381°
Altitude
482.661 km
Speed
7.626 km/s
True Right ascension
23h 13m 54s
True Declination
0° 00' 00"
Sunlit
Object was in daylight at epoch
Visualization orbit readout
Latitude
Unknown
Longitude
Unknown
Altitude
Unknown
Speed
Unknown
Apparent Right ascension
Unknown
Apparent Declination
Unknown
Sunlit
N/A
Visualization observer readout
Local Sidereal Time
07:24:05
Azimuth
Unknown
Elevation
Unknown
Doppler factor
Unknown
Orbital elements
Apogee altitude
485.6 km
Perigee altitude
484.324 km
Semi-major axis
6,863.099 km
Eccentricity
0.00009
Inclination
43.0023°
RAAN
348.4779°
Arg. of periapsis
281.9824°
True anomaly
78.10282°
Mean anomaly
78.0924°
Eccentric anomaly
78.09761°
Mean motion
3.81736 °/min
Orbital period
94.31 mins
BSTAR
0.00050396
Loading maneuver chart data...
Computing Atmospheric mass density...
Loading historical data...
Loading historical data...
Loading historical data...
Loading historical data...
Loading historical data...
Loading historical data...
Loading historical data...

Documentation

Showing up to 5 results
|